Retour au catalogue

CZ-4C DEB

ActifLEO
NORAD 47534·DEBRIS·🇨🇳 China

Lancé Jan 29, 2021 depuis Jiuquan Satellite Launch Center

Loading…

Prochains Passages (prochaines 24 heures)

TLE

FraisSource: Space-Track

Époque: Sep 14, 2026, 11:25 UTC

1 47534U 21007C   26257.47588856 -.00000019  00000-0  10894-3 0  9992
2 47534  63.4029 281.5608 0183569   2.2837 357.8985 13.44642072276017

Suivez CZ-4C DEB en temps réel avec AllMySat

Download on the App Store